sat.trackr.live / text

‹ back to catalog

SJ-9A

NORAD 38860 · 2012-056A

PAYLOAD ACTIVE UNKNOWN

§ Identity

Operator
Country
PRC
Launch date
2012-10-14
Launch site
TAISC
Launch vehicle
Mass (kg)
RCS (m²)
2.53

External: N2YO · Heavens-Above · Gunter

§ Orbital elements

Epoch: 2026-05-25T04:39:51.555744Z

Period
96.94 min
Inclination
97.6695°
Eccentricity
0.0024937
Mean motion
14.85418860 rev/d
Perigee alt
594.8 km
Apogee alt
629.7 km
Semi-major
6,990.4 km
B*
1.1691e-4
RAAN
117.9809°
Arg perigee
336.5300°
Mean anomaly
23.4775°
Rev number
69,617

§ Raw data

SJ-9A1 38860U 12056A   26145.19434671  .00000960  00000+0  11691-3 0  99972 38860  97.6695 117.9809 0024937 336.5300  23.4775 14.85418860696171

JSON: /api/v1/satellites/38860 · /tle

For live sub-satellite position, see the globe view (requires WebGL).

§ Visibility from observer

Set your observer location to see the next 7 days of passes ≥ 10°. The values pass through the URL so the page stays shareable.

No JS? Fill the form by hand. The geolocation button needs JavaScript.

§ Radio — SatNOGS DB

ModeDescriptionDownlinkUplink
FM Mode S 2.214 GHz

1 transmitter · refreshed weekly from db.satnogs.org